Location: ?astrovice
(49.6513°N, 14.9287°E)
Time: 11:29:55
(UTC+00:00)

BREEZE M DEB (TANK) - Pass Details

Date: 09 April 2020
Orbit: 313 x 13666 km, 49.6° (Epoch: 27 May)

Event Time Altitude Azimuth Distance (km) Brightness Sun altitude
Rises 20:43:38 0° 262° (W) 4,687 7.9 -25.0°
Reaches altitude 10° 20:48:00 10° 262° (W) 2,590 6.6 -25.4°
Enters shadow 20:51:26 35° 262° (W) 907 4.1 -25.7°
